Regional Weather Roundup
Issued by NWS

Home | Current Version | Previous Version | Graphics & Text | Print | Product List | Glossary On
Versions: 1 2 3 4 5 6 7 8 9 10 11 12 13 14 15 16 17 18 19 20 21 22 23 24 25 26 27 28 29 30 31 32 33 34 35 36 37 38 39 40 41 42 43 44 45 46 47 48 49 50
000
ASUS45 KCYS 271710
RWRWY

WYOMING REGIONAL WEATHER ROUNDUP
NATIONAL WEATHER SERVICE CHEYENNE WY
1000 AM MST SAT DEC 27 2014

NOTE:  "FAIR" INDICATES FEW OR NO CLOUDS BELOW 12,000 FEET
WITH NO SIGNIFICANT WEATHER AND/OR OBSTRUCTIONS TO VISIBILITY.

WYZ001-271800-
YELLOWSTONE NATIONAL PARK

CITY           SKY/WX    TMP DP  RH WIND       PRES   REMARKS
LK YELLOWSTONE   N/A      7   3  84 VRB5      30.12R WCI  -2
W YELLOWSTONE  NOT AVBL

$$
WYZ002>013-054>058-071-098>099-271800-
NORTHERN WYOMING

CITY           SKY/WX    TMP DP  RH WIND       PRES   REMARKS
JACKSON        CLOUDY     1   0  92 N5        30.20  HAZE    WCI  -8
CODY           CLOUDY    16   5  62 N5        30.05R WCI   9
GREYBULL       PTSUNNY    2   0  91 CALM      30.16R
WORLAND        CLOUDY    -4  -6  91 SW3       30.14R
SHERIDAN       FAIR       7   3  84 CALM      30.07R
BUFFALO        FAIR      18   5  57 W6        30.02R WCI  10
GILLETTE       FAIR      15   8  73 S7        30.05S WCI   5
HULETT           N/A    N/A N/A N/A MISG        N/A
NEWCASTLE      PTSUNNY   18  14  86 CALM      30.12S

$$
WYZ014>020-022>026-101>103-271800-
CENTRAL WYOMING

CITY           SKY/WX    TMP DP  RH WIND       PRES   REMARKS
BIG PINEY      FAIR      -5 -10  79 NE7       30.17R WCI -19
PINEDALE       FAIR      -4  -8  84 W8        30.17R WCI -19
DUBOIS         NOT AVBL
LANDER         FAIR       9  -1  64 CALM      30.06R
RIVERTON       FAIR       9   3  77 SW6       30.07R WCI  -1
CASPER         FAIR      13   5  70 SW23G31   30.07S WCI  -6
DOUGLAS        FAIR       5   2  87 SE3       30.09S

$$
WYZ021-027>030-104>119-271800-
SOUTHERN WYOMING

CITY           SKY/WX    TMP DP  RH WIND       PRES   REMARKS
EVANSTON       FAIR       9   7  92 SW13      30.20S WCI  -7
KEMMERER       FLURRIES   7   3  85 W9        30.17R WCI  -7
FORT BRIDGER   FAIR      13   4  64 W14       30.22R WCI  -2
ROCK SPRINGS   FAIR       9   3  77 W18       30.17R WCI -10
DIXON          LGT SNOW   7   2  79 CALM      30.26R VSB 3/4
RAWLINS        FAIR      11   3  70 W16       30.13R WCI  -6
SARATOGA       FAIR      10   3  72 SW10      30.15R WCI  -3
LARAMIE        FAIR       7   0  73 SW20      30.02F WCI -13
CHEYENNE       FAIR      16   2  54 W17       30.09R WCI   0
TORRINGTON     FAIR       5   3  91 CALM      30.16R
PINE BLUFFS    FAIR      12   1  62 SE6       30.14R WCI   3

$$


USA.gov is the U.S. government's official web portal to all federal, state and local government web resources and services.